Location: *
(49.8044°N, 4.0558°E)
Time: 17:03:10
(UTC+00:00)

Cosmos 1850 Rocket - Pass Details

Date: 09 April 2020
Orbit: 754 x 786 km, 74.0° (Epoch: 24 May)

Event Time Altitude Azimuth Distance (km) Brightness Sun altitude
Exits shadow 20:24:21 19° 173° (S) 1,727 5.4 -17.6°
Maximum altitude 20:27:47 49° 106° (ESE) 969 4.1 -18.1°
Drops below altitude 10° 20:32:46 10° 33° (NNE) 2,291 6.5 -18.7°
Sets 20:35:12 0° 28° (NNE) 3,222 7.4 -19.0°
